Theta_e
323 320 323 321 307 306 300 302 309 309 311 314 319 315 311 313 308 306 332 336 339 340 343 346 347 348 346 346 347 348 348 348 347 346 343 340 339 340 339 341 341 341 338 338 337 337 337 339 338
318 317 322 315 304 297 298 305 306 310 310 315 313 312 310 309 323 327 330 336 341 343 345 344 345 347 345 345 347 348 348 348 346 345 344 340 338 339 339 339 343 341 339 339 337 337 336 335 336
316 315 314 309 304 298 298 304 309 307 311 311 310 314 313 313 325 329 334 337 341 343 343 344 344 346 344 344 346 346 346 347 346 345 342 339 338 339 339 339 342 340 338 337 335 335 336 334 335
317 316 311 303 300 300 301 305 308 309 307 308 312 309 318 325 328 332 336 337 341 342 345 343 345 345 343 344 344 344 345 346 346 345 341 339 337 337 339 338 339 338 338 336 335 336 335 334 334
316 312 304 301 300 301 302 306 310 308 307 308 311 307 314 327 332 334 335 336 338 342 345 343 343 344 345 343 342 343 344 344 345 345 341 338 336 336 338 336 337 337 337 336 336 335 335 334 334
309 311 300 299 299 301 304 307 308 307 307 308 309 310 316 330 331 334 335 336 340 343 344 342 337 340 342 343 343 343 344 344 345 344 341 338 335 335 336 334 334 337 337 337 337 335 333 335 334
307 305 301 300 299 301 303 307 307 306 306 307 313 308 316 326 332 335 335 337 340 343 343 343 342 339 336 338 339 340 341 343 344 343 341 338 337 336 336 336 334 335 338 337 334 333 333 332 334
309 307 299 300 298 298 304 305 306 306 305 309 315 305 308 325 333 335 336 336 339 342 342 342 342 340 340 340 332 334 336 338 339 338 334 332 333 332 332 332 333 334 336 335 335 334 333 332 331
306 303 299 298 299 301 304 304 304 306 306 308 313 310 316 331 333 333 333 334 337 338 340 342 342 341 340 339 334 330 331 332 332 331 327 328 333 331 330 329 331 335 335 334 333 332 330 328 328
306 302 302 304 304 303 303 305 305 305 305 305 308 312 323 331 332 329 329 330 332 333 335 338 340 341 340 337 338 337 336 336 336 337 336 335 332 331 328 327 327 328 329 332 330 327 324 326 329
302 301 302 302 302 303 303 302 305 305 303 307 307 310 322 329 330 328 329 330 331 334 335 336 338 340 340 338 338 337 335 335 336 336 335 334 331 330 329 331 330 329 324 328 328 325 327 326 327
299 300 301 301 302 302 302 303 302 305 305 306 309 312 323 327 328 328 328 329 331 333 334 335 337 337 338 339 338 338 335 334 333 334 334 331 328 328 328 328 329 329 328 327 326 325 325 324 324
300 300 300 301 300 301 301 301 302 303 307 305 305 311 319 324 327 330 330 331 332 331 332 334 336 336 337 337 338 338 336 333 333 332 332 330 327 327 327 327 327 327 328 326 324 324 323 324 324
300 300 300 300 300 300 299 299 300 303 303 303 303 307 313 321 326 329 330 331 332 333 332 334 335 336 336 336 337 336 338 336 333 332 331 330 327 326 326 326 325 325 325 324 323 323 322 323 324
299 297 298 298 299 299 300 298 297 303 300 301 302 305 308 315 324 327 330 331 333 335 336 334 334 335 335 335 336 336 336 336 335 332 331 329 328 325 325 325 324 324 323 323 322 322 321 321 322
297 298 293 295 298 298 298 296 299 299 300 301 303 304 304 307 314 324 328 331 333 334 335 337 336 334 334 335 336 336 336 335 335 335 332 329 328 326 323 323 323 323 322 321 320 319 317 318 316
294 291 292 292 297 297 296 296 297 300 300 301 302 302 302 304 305 310 322 329 331 333 334 335 337 336 334 335 335 335 335 335 334 334 334 331 328 326 321 320 320 320 319 317 316 314 313 311 311
291 289 290 292 294 296 295 295 299 300 299 301 303 304 304 304 306 308 308 317 325 330 333 334 336 337 335 334 334 334 333 334 335 332 331 333 329 326 323 322 320 318 316 314 312 312 313 314 312
294 292 290 291 294 295 295 295 298 301 300 301 303 304 305 305 308 307 307 308 310 320 326 330 333 335 335 330 330 330 329 331 332 332 329 328 330 328 325 324 322 320 316 315 315 311 307 306 310
293 291 290 292 294 294 294 294 298 299 300 302 303 303 304 305 305 305 305 306 306 308 314 321 328 332 335 332 331 331 331 331 333 332 330 328 328 329 326 323 318 316 315 317 313 308 305 306 305
291 291 289 290 291 292 292 293 295 297 296 298 299 300 300 300 301 302 303 303 304 305 307 312 318 325 331 334 334 331 332 331 330 329 328 327 327 328 327 324 320 316 317 313 315 312 311 306 306
289 293 292 290 290 287 291 287 293 296 296 297 298 298 300 300 300 298 302 306 307 307 305 304 311 318 324 331 332 329 327 326 328 330 331 329 328 326 325 323 321 319 315 315 316 312 310 309 302
290 292 292 291 290 290 289 288 292 291 293 295 297 298 299 299 300 301 302 302 305 307 307 305 304 311 318 325 329 330 329 329 330 331 329 330 327 328 325 323 321 322 317 318 316 313 311 309 309
292 292 291 290 290 284 289 288 290 291 293 295 296 297 300 300 301 301 302 303 304 307 309 312 305 305 313 320 325 327 326 326 327 328 330 331 329 326 326 324 324 323 321 318 316 314 311 310 309
292 291 284 283 283 282 284 285 290 293 293 295 295 296 300 301 301 302 303 303 303 304 306 307 312 313 311 314 320 323 325 326 325 325 328 328 327 324 325 325 324 323 321 320 318 315 312 309 309
290 290 286 280 279 283 283 283 290 293 294 294 295 298 300 301 301 301 301 302 302 303 305 306 307 310 316 318 317 320 322 322 323 324 325 327 328 327 325 324 324 323 321 321 318 316 312 310 308
289 287 290 282 276 283 286 288 292 293 293 294 297 298 299 299 299 299 300 300 301 302 303 304 305 305 307 312 316 314 314 315 316 316 316 317 317 314 315 316 316 316 316 315 316 315 312 311 309
291 292 286 286 280 280 282 283 287 290 294 295 296 297 297 297 297 298 299 299 300 301 302 302 303 303 304 306 306 307 307 309 310 312 313 314 315 315 315 316 315 313 313 313 312 312 311 309 308
287 287 287 289 286 283 280 285 292 292 294 296 296 296 297 297 298 298 298 298 298 299 299 299 300 300 301 303 304 304 304 304 305 306 306 306 307 308 308 309 310 310 310 311 310 310 309 306 307
289 290 290 285 281 283 282 285 292 291 296 298 296 296 296 298 298 297 297 297 297 296 296 296 296 296 297 299 299 299 299 300 301 301 302 303 303 304 304 304 305 306 306 307 307 306 307 306 304
Wind_Speed
3 5 2 1 3 2 5 6 0 7 7 2 5 2 1 5 3 5 7 7 13 14 12 12 9 11 11 11 10 10 11 13 15 16 15 16 14 14 14 13 13 15 18 17 17 17 16 16 16
3 2 1 1 4 5 6 5 8 7 4 6 5 4 3 4 3 8 13 9 16 14 12 12 9 11 12 9 8 11 11 13 15 17 15 15 14 13 14 13 13 15 17 17 16 16 16 16 17
1 4 3 2 2 3 4 8 9 6 7 3 4 1 1 4 4 13 6 17 16 13 11 11 10 11 12 10 9 9 10 11 15 16 16 15 13 12 13 12 13 15 15 17 15 16 16 17 16
1 3 3 6 4 2 1 9 6 11 3 2 1 3 2 3 6 5 14 18 16 14 12 12 10 11 11 10 10 8 8 11 13 15 15 15 13 11 12 13 10 14 15 14 15 16 16 13 14
1 1 5 5 3 2 2 4 10 10 7 5 3 4 1 3 3 9 17 16 15 13 11 12 9 10 10 10 11 9 8 10 8 14 16 15 13 10 12 12 9 11 14 14 15 14 13 12 11
4 1 6 8 5 3 3 7 8 7 4 6 5 6 4 3 8 12 16 16 14 13 12 11 9 9 10 9 9 9 8 9 10 14 14 14 12 10 10 11 9 10 12 15 14 13 12 11 11
3 6 5 5 7 5 5 8 9 7 7 5 4 5 4 6 7 12 16 15 14 13 12 11 12 11 8 8 8 8 8 8 9 12 12 11 11 9 7 10 8 8 13 13 13 11 9 11 13
2 2 6 4 7 4 7 8 2 6 5 3 2 3 4 11 10 12 13 15 13 13 12 11 10 10 10 9 7 7 7 8 9 10 10 10 10 9 7 8 8 6 12 12 11 11 11 11 12
1 5 6 7 7 7 7 7 3 1 5 2 5 1 5 13 14 13 13 14 13 11 11 10 11 10 9 9 8 7 6 7 9 9 8 9 6 8 9 7 7 7 11 11 11 10 11 11 11
4 5 7 3 4 6 10 6 9 6 6 5 4 4 7 13 15 17 17 16 14 14 13 11 11 11 10 7 10 9 8 7 7 7 8 5 6 5 5 6 7 7 7 9 9 7 7 4 5
3 5 6 5 1 3 9 6 4 6 6 7 11 11 11 14 15 16 18 18 16 14 11 11 11 11 11 9 7 5 5 5 5 8 7 6 5 6 5 5 6 6 6 5 5 5 3 4 3
4 2 4 4 4 5 7 6 5 7 3 4 3 8 14 17 17 18 18 18 17 16 14 14 12 11 11 7 8 7 6 6 6 7 8 6 5 6 5 5 5 5 5 5 4 3 3 4 3
3 6 4 5 6 4 5 2 1 8 7 4 3 6 13 15 17 15 14 15 15 16 15 15 14 12 10 10 8 8 8 7 7 7 9 7 6 6 6 5 5 5 5 5 5 4 4 4 4
4 7 8 2 5 3 3 2 3 2 2 6 6 7 10 14 16 13 14 15 17 16 16 15 15 13 12 10 12 9 8 8 8 8 8 9 7 6 6 6 6 6 6 5 5 5 4 4 4
7 7 5 2 2 2 1 6 8 5 2 4 5 9 8 12 12 17 16 17 17 15 15 17 16 14 12 14 10 8 7 9 8 8 10 11 10 9 9 7 7 7 6 7 5 5 4 4 4
4 3 6 2 4 1 5 13 3 2 5 9 8 8 9 10 13 15 15 16 15 15 16 16 14 16 15 14 10 8 8 9 9 8 8 12 12 11 10 8 7 7 6 6 6 6 4 4 3
1 6 7 4 2 2 6 6 0 1 2 4 5 8 7 7 12 13 16 15 15 16 16 16 17 17 18 15 11 11 11 8 7 7 9 12 13 12 10 7 6 7 6 6 5 5 5 5 4
11 6 3 7 5 3 5 12 10 7 6 10 8 6 7 9 13 10 12 13 15 15 16 17 15 17 17 12 10 8 8 8 8 8 8 12 11 13 12 9 9 8 6 6 6 6 7 6 6
8 7 6 2 2 3 8 13 15 11 8 12 12 11 12 12 9 5 7 9 12 14 16 18 17 19 14 11 10 9 10 9 9 8 12 11 12 14 13 10 11 12 10 10 11 6 7 6 5
7 7 4 4 2 2 2 13 13 13 10 11 11 11 11 9 9 7 8 8 10 12 16 17 19 18 15 12 11 9 9 9 10 9 10 12 12 15 13 13 8 10 7 11 11 10 5 5 7
2 5 4 2 2 2 5 10 6 5 6 7 7 7 7 9 10 8 6 4 6 9 11 13 15 17 17 17 11 7 6 5 7 8 9 12 13 13 15 14 12 9 9 8 12 12 15 8 8
7 6 5 7 2 4 3 6 4 4 10 6 4 3 1 4 4 1 1 3 5 5 5 8 12 14 14 16 13 15 12 12 11 10 8 8 14 13 12 12 12 12 9 11 11 9 11 9 8
3 7 6 4 3 2 4 7 3 2 7 3 6 4 3 3 4 5 5 4 5 5 4 3 7 11 13 14 15 12 15 11 10 10 9 10 10 13 12 12 13 14 10 12 12 10 12 10 10
14 10 7 4 2 6 4 7 6 6 4 5 5 4 4 4 4 5 4 4 5 6 6 5 2 5 8 10 13 15 13 12 8 9 8 7 7 8 11 12 12 12 11 12 12 13 13 13 10
3 12 4 4 5 5 2 6 9 3 4 2 2 4 4 4 5 6 6 7 7 9 8 7 6 6 3 7 9 11 12 12 12 11 9 10 5 4 9 12 12 10 11 12 11 11 13 12 12
9 6 6 7 6 3 2 9 4 2 0 3 1 2 3 5 6 7 7 7 7 8 9 8 9 8 7 5 4 3 4 3 3 5 4 5 6 7 6 7 8 9 9 10 10 8 9 10 10
7 7 3 8 2 2 5 5 11 4 2 5 6 5 5 6 7 8 8 8 8 9 9 9 9 9 9 7 6 5 3 2 1 2 2 3 3 2 2 3 4 5 5 5 7 8 9 9 10
4 12 4 1 6 5 4 6 8 6 9 7 7 7 7 7 8 8 9 9 8 9 8 10 10 10 9 9 7 6 6 5 4 3 4 5 5 5 6 7 6 5 5 5 5 6 6 8 7
6 7 2 3 2 4 3 5 3 7 9 11 9 7 8 8 8 7 8 8 9 8 8 9 10 10 10 9 8 7 6 6 5 5 4 4 5 5 5 6 7 7 8 8 7 8 7 8 9
1 7 10 7 6 3 1 6 2 3 6 12 10 8 8 8 8 7 6 7 7 7 8 9 8 9 8 8 8 8 8 7 7 7 7 6 6 6 6 6 7 7 8 8 10 11 9 9 9
Wind_Direction
342 348 292 286 230 244 148 166 341 146 166 102 128 217 331 7 352 36 148 133 145 151 150 153 138 133 126 125 121 115 110 119 118 109 100 95 92 94 93 89 91 96 88 85 87 87 85 80 80
19 290 224 111 254 210 149 150 179 140 93 130 128 142 197 80 57 111 143 160 153 151 153 149 131 128 121 117 124 114 108 109 123 110 104 97 99 99 95 88 90 94 93 88 87 88 90 91 87
67 1 273 310 259 214 153 181 148 119 126 163 139 317 22 86 98 148 115 156 153 151 155 133 133 129 130 122 109 106 115 114 125 117 105 98 103 104 97 92 84 91 90 92 92 95 95 92 89
283 164 122 250 221 97 69 162 149 144 153 167 101 149 135 40 143 155 146 155 157 154 152 138 137 136 135 125 117 112 101 99 126 118 108 111 107 108 99 91 89 98 93 95 99 101 93 93 96
57 194 214 236 182 139 172 151 169 155 141 147 167 116 101 108 132 143 152 160 159 153 149 151 139 136 133 131 129 121 106 101 117 116 114 111 110 113 106 95 89 116 103 104 103 106 100 96 87
158 227 209 213 165 163 165 165 171 171 145 139 181 146 112 96 162 155 159 163 159 156 155 147 143 140 140 135 132 126 119 116 113 116 116 115 116 120 121 112 100 104 121 118 114 105 91 97 96
208 203 204 166 153 162 152 164 186 176 153 168 127 156 107 173 161 164 167 164 165 160 164 161 159 152 138 135 134 130 125 117 113 122 116 112 120 120 114 110 117 107 100 106 104 114 103 100 89
156 216 155 174 174 136 146 173 169 195 154 104 205 166 150 162 153 162 170 169 172 168 173 168 163 166 160 153 131 130 132 126 110 112 113 109 112 112 101 117 112 121 102 96 103 96 99 86 92
92 202 184 168 177 136 153 179 168 79 134 221 178 115 88 139 147 160 169 176 177 175 183 179 173 172 166 162 149 142 132 118 117 119 116 145 139 146 159 75 116 106 116 118 113 107 103 100 85
226 202 184 166 171 150 167 207 154 178 160 198 194 136 135 157 166 172 179 183 189 188 186 185 186 179 171 169 166 168 158 169 170 166 165 148 148 148 144 130 124 135 120 116 113 115 119 176 139
207 189 150 164 108 162 158 185 160 165 198 211 206 180 167 170 185 186 189 192 193 190 193 193 189 190 184 177 175 175 177 174 173 172 167 157 156 159 164 149 157 150 153 156 162 165 170 151 165
169 66 129 136 131 138 166 133 176 223 85 62 209 169 170 183 194 196 194 194 192 194 198 202 199 194 195 190 191 184 184 181 178 178 174 169 171 173 169 174 171 170 183 165 178 167 154 157 161
158 143 101 113 112 99 131 179 154 236 202 146 70 167 192 197 201 207 205 199 195 198 199 203 200 197 197 200 202 197 196 189 186 180 183 184 178 181 178 178 181 185 183 184 182 175 175 174 180
111 128 118 143 114 109 196 173 281 164 137 198 208 210 208 210 208 202 207 206 206 199 202 200 200 199 196 199 206 205 205 194 191 190 188 192 188 186 188 183 189 189 195 189 192 188 188 192 194
130 112 122 129 120 105 220 242 222 245 300 258 194 216 215 215 211 215 212 212 206 210 198 203 200 196 200 204 204 203 213 209 200 200 194 192 195 192 193 192 194 194 196 192 196 196 206 207 205
117 137 172 136 160 116 233 246 209 316 250 256 248 220 220 224 221 223 223 220 213 213 212 204 198 199 200 202 202 202 203 216 215 207 199 200 199 198 196 197 203 193 188 205 201 201 204 211 224
132 187 199 173 164 150 222 261 86 113 323 281 271 239 226 237 236 230 226 221 220 218 214 213 206 206 206 203 202 203 204 209 205 209 213 206 204 201 196 190 191 176 189 200 197 194 204 210 206
172 161 210 197 151 179 218 251 261 248 277 278 272 254 239 232 243 229 224 227 226 222 221 218 213 213 214 208 202 201 200 207 206 200 208 214 210 205 208 206 198 185 179 188 192 207 206 219 213
151 147 156 158 76 191 246 267 267 268 260 258 255 251 247 248 269 241 233 221 227 228 222 221 216 215 208 210 201 199 201 202 205 200 200 201 219 212 211 215 207 200 197 201 200 189 194 211 208
127 154 157 102 86 220 290 274 271 263 253 245 249 254 260 263 264 247 249 237 224 229 226 224 221 217 212 209 213 213 207 212 211 202 200 200 203 218 215 214 205 202 202 209 202 191 180 211 184
139 170 164 94 127 75 301 272 257 254 261 267 248 253 275 285 291 289 280 283 265 237 236 235 230 225 217 216 212 208 220 214 202 205 203 203 200 205 212 217 215 207 208 212 213 213 214 217 206
196 207 131 129 185 258 321 277 264 272 284 256 267 141 65 339 332 319 349 13 359 311 265 241 232 225 223 215 218 216 216 220 221 217 207 203 203 204 208 212 212 212 208 217 217 214 213 223 207
147 138 132 110 127 310 194 263 268 358 266 182 126 92 53 49 49 72 58 33 18 0 357 276 227 223 218 216 217 217 224 233 235 228 208 202 199 204 202 205 208 220 216 223 220 212 213 215 225
144 106 79 80 142 240 215 250 252 211 239 164 128 37 34 52 80 79 66 50 35 27 34 38 123 203 214 217 219 227 232 238 240 239 233 206 197 199 205 207 216 219 218 215 217 214 216 219 220
198 157 131 187 200 243 75 221 264 259 241 154 92 14 41 60 77 69 52 42 34 27 29 41 62 69 151 204 216 225 231 237 240 242 240 235 197 192 206 207 213 218 218 217 218 216 216 213 218
181 210 166 186 193 159 132 229 242 148 280 274 245 126 117 100 86 67 52 46 42 36 33 45 53 61 65 89 138 201 236 255 267 274 270 262 236 224 214 216 224 225 225 221 219 218 218 217 219
164 205 70 99 31 248 203 246 275 219 213 162 144 143 113 83 69 66 60 52 49 51 48 48 54 55 55 68 92 88 76 54 351 283 274 270 301 316 305 255 244 241 236 226 216 221 219 213 216
194 142 141 250 171 224 219 267 235 194 195 150 143 129 110 96 81 71 65 60 57 55 52 55 55 54 49 51 55 64 73 71 63 38 358 327 310 295 284 272 264 264 251 235 229 237 229 217 225
147 182 132 155 195 209 247 233 217 232 167 161 139 126 119 105 93 81 74 65 60 60 55 58 54 54 55 51 45 44 43 52 59 54 34 5 325 312 291 284 277 263 260 258 244 243 231 226 233
8 190 182 190 189 245 339 258 38 313 172 150 139 133 121 116 107 92 88 82 71 60 55 52 50 49 46 52 53 41 28 29 42 40 23 7 345 330 319 307 295 288 280 271 260 260 245 237 236